Location: Batu Kasi
(2.5833°N, 113.7000°E)
Time: 10:56:16
(UTC+00:00)

Daily predictions for brighter satellites

Satellite Brightness Start Highest point End
(mag) Time Altitude Azimuth Time Altitude Azimuth Time Altitude Azimuth
Tiangong 1.1 12:01:54 10° WNW 12:02:03 11° WNW 12:02:03 11° WNW
NOSS 3-2 (A) 4.4 12:01:52 10° S 12:04:00 24° S 12:04:00 24° S
USA 234 3.5 12:09:35 51° SE 12:09:35 51° SE 12:15:34 10° SSW
Meteor 2-3 Rocket 3.8 12:08:22 43° NNW 12:10:12 71° W 12:15:45 10° S
Cosmos 2180 Rocket 4.5 12:04:11 10° S 12:10:28 78° W 12:11:52 56° NNW
ATLAS 5 CENTAUR R/B 4.1 12:12:53 10° NW 12:18:22 33° WSW 12:24:29 10° S
CENTAUR R/B 3.3 12:15:05 10° SW 12:19:03 30° WNW 12:19:06 30° WNW
Maqsat-H 3.6 12:15:54 10° WSW 12:24:24 31° SSW 12:25:02 30° S
ATLAS 5 CENTAUR R/B 3.3 12:36:38 10° WSW 12:37:56 25° SW 12:37:56 25° SW
Cosmos 2082 Rocket 4.5 13:05:05 19° SW 13:05:05 19° SW 13:07:39 10° SSW
CZ-3 R/B 4.5 17:30:42 10° WSW 18:43:40 42° NNE 18:51:27 10° NE
Ariane H10+ 4.2 19:23:40 75° NW 19:25:14 81° N 19:45:11 10° E
ARIANE 5 R/B 4.3 19:29:41 32° E 19:29:41 32° E 19:36:18 10° E
BLOCK DM-SL R/B 4.2 19:34:59 73° SE 19:34:59 73° SE 19:52:59 10° E
Atlas Centaur 2 2.9 20:00:56 71° NNW 20:00:56 71° NNW 20:08:20 10° NE
ARIANE 42L R/B 4.4 20:02:45 24° SE 20:02:45 24° SE 20:04:01 10° ESE
CZ-2C R/B 3.6 20:06:58 34° S 20:06:58 34° S 20:09:46 10° S
Cosmos 1943 Rocket 4.0 20:01:47 16° NNE 20:04:55 25° ENE 20:09:22 10° SE
Cosmos 1269 Rocket 4.2 20:09:14 67° E 20:09:14 67° E 20:14:21 10° SSE
Cosmos 2278 Rocket 3.8 20:10:22 15° NNE 20:14:13 31° ENE 20:19:08 10° SE
PAYLOAD A 4.0 20:20:14 67° SSW 20:20:14 67° SSW 20:24:25 10° SSW
ARIANE 5 DEB (SYLDA) 4.1 20:26:29 39° SSW 20:27:27 44° S 20:36:30 10° ESE
USA 276 4.5 20:30:11 20° SE 20:30:11 20° SE 20:31:13 10° SE
Cosmos 1939 Rocket 3.2 20:29:46 51° ENE 20:30:20 58° ESE 20:33:59 10° S
Cosmos 1023 Rocket 4.3 20:33:00 65° W 20:33:10 66° WSW 20:38:14 10° S
Cosmos 1459 Rocket 3.9 20:38:24 26° NNW 20:41:59 66° W 20:48:04 10° S
In-Cosmos 22 Rocket 4.3 20:37:31 10° S 20:43:17 83° E 20:49:06 10° N
H-10 deb 2.0 20:45:52 44° SSW 20:46:14 48° SSE 20:50:50 10° E
Cosmos 2100 Rocket 4.2 20:47:08 30° NW 20:49:45 47° W 20:55:46 10° SSW
Meteor 1-21 Rocket 4.3 20:45:38 10° S 20:51:29 81° E 20:57:14 10° N
CZ-4 R/B 4.4 20:49:46 10° NNE 20:54:20 58° ESE 20:58:53 10° S
Cosmos 2346 Rocket 4.4 20:49:28 10° SSW 20:55:36 63° W 21:01:38 10° N
ASTEX 1 4.3 20:51:48 10° SSW 20:55:35 28° WSW 20:55:35 28° WSW
FengYun 1-2 T 4.2 20:50:30 10° N 20:56:06 76° WNW 21:01:46 10° SSW
BlueWalker 3 1.8 20:56:07 53° W 20:56:35 58° SW 21:00:07 10° SSE
Cosmos 1447 Rocket 4.4 20:50:40 10° SSW 20:56:46 65° W 21:02:57 10° N
Iridium 4 Rocket 3.0 20:55:11 10° N 20:59:27 85° W 21:04:03 10° S
SL-16 R/B 2.6 20:53:33 10° S 20:59:36 56° WSW 21:05:08 12° NNW
Cosmos 1864 Rocket 4.5 20:53:51 10° NNW 21:00:06 64° W 21:06:22 10° S
Cosmos 1782 Rocket 3.5 20:59:23 10° N 21:03:41 85° E 21:07:59 10° S
Cosmos 1378 Rocket 3.4 20:59:27 10° S 21:03:44 89° ESE 21:07:59 10° N
Cosmos 407 Rocket 3.4 21:00:29 13° NNW 21:05:03 76° WSW 21:10:14 10° S
Cosmos 1300 Rocket 3.4 21:03:18 10° N 21:07:31 71° W 21:11:47 10° S
Timation 2 Rocket 4.1 21:04:30 17° NW 21:09:01 52° WSW 21:14:50 10° S
Cosmos 2233 Rocket 3.9 21:08:40 10° N 21:14:53 85° W 21:21:03 10° S
EPKM 4.0 21:07:58 14° W 21:15:04 31° NW 21:18:24 10° NNE
Cosmos 1725 Rocket 4.2 21:10:03 10° NNW 21:16:03 49° W 21:22:02 10° SSW
Cosmos 2061 Rocket 4.0 21:11:47 10° N 21:17:59 89° E 21:24:17 10° S
Cosmos 1302 Rocket 4.0 21:14:09 10° SSW 21:19:19 90° E 21:24:28 10° NNE
IRS-1D 3.7 21:20:44 10° N 21:25:26 46° WNW 21:30:14 10° SSW
BLOCK DM-SL R/B 4.2 21:21:41 13° W 21:25:31 73° S 21:49:59 10° E
ARIANE 5 R/B 3.3 21:25:26 10° SW 21:27:47 17° S 21:29:19 10° SE
SWARM C 4.5 21:33:35 10° S 21:36:51 61° W 21:40:06 10° N
SWARM A 4.1 21:33:41 10° S 21:37:00 80° W 21:40:16 10° N
GPS 2-17 Rocket1 2.8 21:38:16 11° WNW 21:42:28 87° SSW 21:46:43 10° ESE
ATLAS 2A CENTAUR R/B 1.7 21:41:13 11° WNW 21:43:24 83° SSW 21:48:26 10° ESE
FALCON 9 R/B 3.9 21:37:27 10° WNW 21:44:50 22° SW 21:48:26 10° S
Cosmos 1943 4.4 21:41:32 10° WSW 21:45:19 18° WNW 21:49:06 10° NNW
Cosmos 1943 Rocket 3.4 21:44:19 10° WNW 21:48:19 21° WSW 21:52:21 10° SSW
Delta 168 4.3 21:40:15 10° WNW 21:48:22 61° SSW 21:53:48 10° SE
Atlas Centaur 2 4.0 21:43:51 10° WNW 21:49:48 23° NNW 21:55:16 10° NNE
Cosmos 1603 4.1 21:46:17 10° SW 21:51:40 43° WNW 21:57:03 10° N
